www.pogodaiklimat.ru

Погода и климат >> Архив погоды >> Австралия >> Port Keats Aero


ПОГОДА в Port Keats Aero

  • Прогноз погоды в Port Keats Aero
  • Монитор погоды в Port Keats Aero
  • Климат города

АРХИВ ПОГОДЫ в Port Keats Aero

Время (UTC), дата Ветер
(напр.,м/с)
 
Видим.   Явления Облачность Т
(С)
Тd
(С)
f
(%)
Тe
(С)
Тes
(С)
Комфортность P
(гПа)
Po
(гПа)
Тmin
(С)
Tmax
(С)
R
(мм)
R24
(мм)
S
(см)
23 15.10 СВ 4 н/о н/о +29.0 +23.4 72 +39 +39 очень
душно
1010.8 1007.5
00 16.10 С 3 н/о н/о +31.2 +23.0 62 +41 +41 опасность
перегрева
1010.9 1007.6
02 16.10 С 4 н/о н/о +33.7 +20.5 46 +40 +40 очень
душно
1010.1 1006.8
03 16.10 С 5 н/о н/о +34.0 +20.4 45 +41 +41 опасность
перегрева
1009.4 1006.1
05 16.10 С 7 н/о н/о +34.5 +21.9 48 +43 +43 опасность
перегрева
1007.4 1004.1
06 16.10 С 6 н/о н/о +33.0 +21.5 51 +41 +41 опасность
перегрева
1006.9 1003.6
08 16.10 С 7 н/о н/о +30.8 +22.9 63 +41 +41 опасность
перегрева
1007.3 1004.0
09 16.10 С 7 н/о н/о +29.7 +23.6 70 +41 +41 опасность
перегрева
1007.5 1004.2
11 16.10 С 3 н/о н/о +28.8 +23.9 75 +40 +40 очень
душно
1009.4 1006.1
12 16.10 Ю 3 н/о н/о +29.0 +24.1 75 +40 +40 очень
душно
1011.4 1008.1
14 16.10 С 6 н/о н/о +28.8 +22.3 68 +38 +38 очень
душно
1009.3 1006.0
15 16.10 С 6 н/о н/о +28.8 +24.1 76 +40 +40 очень
душно
1008.7 1005.4
17 16.10 С 5 н/о н/о +28.6 +23.9 76 +40 +40 очень
душно
1008.7 1005.4
18 16.10 С 3 н/о н/о +28.5 +23.9 76 +39 +39 очень
душно
1009.0 1005.7
20 16.10 С 3 н/о н/о +28.4 +23.8 76 +39 +39 очень
душно
1009.4 1006.1
21 16.10 С 2 н/о н/о +28.4 +23.8 76 +39 +39 очень
душно
1010.4 1007.1
23 16.10 ЮЗ 2 н/о н/о +21.5 +20.1 92 +27 +27 душно 1013.2 1009.9
00 17.10 Ю 4 н/о н/о +22.4 +20.9 91 +29 +29 очень
душно
1013.8 1010.5
02 17.10 С 4 н/о н/о +26.5 +22.6 79 +35 +35 очень
душно
1012.0 1008.7
03 17.10 С 2 н/о н/о +28.2 +23.1 74 +38 +38 очень
душно
1011.5 1008.2
05 17.10 С 4 н/о н/о +29.9 +22.1 63 +39 +39 очень
душно
1009.2 1005.9
06 17.10 С 3 н/о н/о +30.0 +21.7 61 +38 +38 очень
душно
1008.7 1005.4
08 17.10 СЗ 4 н/о н/о +29.9 +22.1 63 +39 +39 очень
душно
1008.1 1004.8
09 17.10 СЗ 3 н/о н/о +28.5 +23.2 73 +38 +38 очень
душно
1008.5 1005.2
11 17.10 СЗ 2 н/о н/о +27.7 +23.9 80 +38 +38 очень
душно
1009.7 1006.4
12 17.10 СВ 2 н/о н/о +26.9 +23.8 83 +37 +37 очень
душно
1010.6 1007.3
14 17.10 С 3 н/о н/о +27.3 +23.5 80 +37 +37 очень
душно
1010.3 1007.0
15 17.10 СЗ 1 н/о н/о +26.8 +23.5 82 +36 +36 очень
душно
1010.2 1006.9
17 17.10 ЮВ 1 н/о н/о +26.1 +24.0 88 +36 +36 очень
душно
1009.9 1006.6
18 17.10 штиль 0 н/о н/о +25.9 +23.8 88 +35 +35 очень
душно
1009.4 1006.1
20 17.10 ЮВ 3 н/о н/о +25.7 +23.6 88 +35 +35 очень
душно
1010.5 1007.2
21 17.10 СВ 2 н/о н/о +25.7 +23.2 86 +34 +34 очень
душно
1010.8 1007.5
23 17.10 В 3 н/о н/о +28.6 +22.6 70 +38 +38 очень
душно
1012.2 1008.9
00 18.10 С 3 н/о н/о +28.7 +22.7 70 +38 +38 очень
душно
1012.9 1009.6
02 18.10 СЗ 4 н/о н/о +30.7 +22.0 60 +39 +39 очень
душно
1012.1 1008.8
03 18.10 С 5 н/о н/о +31.2 +22.2 59 +40 +40 очень
душно
1011.1 1007.8
05 18.10 ЮВ 5 н/о н/о +25.2 +21.1 78 +32 +32 очень
душно
1010.6 1007.3
06 18.10 СВ 1 н/о н/о +24.9 +23.0 89 +33 +33 очень
душно
1010.7 1007.4
08 18.10 СВ 2 н/о н/о +25.5 +21.6 79 +33 +33 очень
душно
1010.2 1006.9
09 18.10 СЗ 1 н/о н/о +25.8 +22.3 81 +34 +34 очень
душно
1010.1 1006.8
11 18.10 В 2 н/о н/о +24.7 +21.8 84 +32 +32 очень
душно
1011.9 1008.6
12 18.10 ЮЗ 2 н/о н/о +24.3 +22.0 87 +31 +31 очень
душно
1012.1 1008.8
14 18.10 В 1 н/о н/о +24.2 +22.1 88 +31 +31 очень
душно
1012.0 1008.7
15 18.10 ЮВ 2 н/о н/о +24.3 +22.0 87 +31 +31 очень
душно
1011.8 1008.5
17 18.10 штиль 0 н/о н/о +24.2 +22.5 90 +32 +32 очень
душно
1011.0 1007.7
18 18.10 штиль 0 н/о н/о +24.4 +22.8 91 +32 +32 очень
душно
1010.9 1007.6
20 18.10 штиль 0 н/о н/о +24.4 +22.5 89 +32 +32 очень
душно
1011.5 1008.2
21 18.10 ЮВ 2 н/о н/о +24.4 +22.5 89 +32 +32 очень
душно
1012.1 1008.8
23 18.10 штиль 0 н/о н/о +27.2 +22.8 77 +36 +36 очень
душно
1013.6 1010.3
00 19.10 СВ 2 н/о н/о +29.3 +22.8 68 +39 +39 очень
душно
1013.9 1010.6
02 19.10 З 3 н/о н/о +30.7 +22.6 62 +40 +40 очень
душно
1013.0 1009.7
03 19.10 СЗ 4 н/о н/о +31.8 +23.6 62 +43 +43 опасность
перегрева
1012.2 1008.9
05 19.10 З 4 н/о н/о +32.2 +21.4 53 +40 +40 очень
душно
1010.0 1006.7
06 19.10 З 5 н/о н/о +31.3 +21.8 57 +40 +40 очень
душно
1009.3 1006.0
08 19.10 З 3 н/о н/о +31.2 +20.8 54 +38 +38 очень
душно
1009.3 1006.0
09 19.10 СЗ 3 н/о н/о +30.1 +20.1 55 +37 +37 очень
душно
1010.0 1006.7
11 19.10 СЗ 1 н/о н/о +28.3 +23.2 74 +38 +38 очень
душно
1010.7 1007.4
12 19.10 З 1 н/о н/о +27.7 +23.9 80 +38 +38 очень
душно
1011.2 1007.9
14 19.10 штиль 0 н/о н/о +26.9 +24.0 84 +37 +37 очень
душно
1011.5 1008.2
15 19.10 З 2 н/о н/о +26.7 +24.0 85 +37 +37 очень
душно
1011.4 1008.1
17 19.10 З 2 н/о н/о +27.3 +24.0 82 +38 +38 очень
душно
1010.0 1006.7
18 19.10 З 1 н/о н/о +27.1 +23.8 82 +37 +37 очень
душно
1009.7 1006.4
20 19.10 штиль 0 н/о н/о +27.1 +24.0 83 +37 +37 очень
душно
1010.5 1007.2
21 19.10 штиль 0 н/о н/о +26.5 +23.8 85 +36 +36 очень
душно
1010.9 1007.6
23 19.10 СВ 3 н/о н/о +27.8 +23.2 76 +37 +37 очень
душно
1013.1 1009.8
00 20.10 С 2 н/о н/о +26.9 +23.6 82 +37 +37 очень
душно
1013.5 1010.2
02 20.10 С 2 н/о н/о +25.0 +20.3 75 +31 +31 очень
душно
1013.5 1010.2
03 20.10 З 2 н/о н/о +27.0 +23.3 80 +36 +36 очень
душно
1012.3 1009.0
05 20.10 СЗ 4 н/о н/о +29.6 +21.8 63 +38 +38 очень
душно
1009.6 1006.3
06 20.10 СЗ 4 н/о н/о +30.3 +23.5 67 +41 +41 опасность
перегрева
1008.8 1005.5
08 20.10 СЗ 4 н/о н/о +30.7 +21.5 58 +39 +39 очень
душно
1008.7 1005.4
09 20.10 СЗ 3 н/о н/о +29.4 +22.1 65 +38 +38 очень
душно
1009.4 1006.1
11 20.10 штиль 0 н/о н/о +27.1 +24.0 83 +37 +37 очень
душно
1010.6 1007.3
12 20.10 штиль 0 н/о н/о +26.5 +23.8 85 +36 +36 очень
душно
1011.3 1008.0
14 20.10 З 1 н/о н/о +26.5 +24.2 87 +37 +37 очень
душно
1010.6 1007.3
15 20.10 С 1 н/о н/о +27.1 +24.2 84 +38 +38 очень
душно
1010.1 1006.8
17 20.10 СЗ 2 н/о н/о +27.9 +23.1 75 +37 +37 очень
душно
1009.3 1006.0
18 20.10 СЗ 3 н/о н/о +28.1 +22.6 72 +37 +37 очень
душно
1009.4 1006.1
20 20.10 СЗ 3 н/о н/о +28.0 +23.2 75 +38 +38 очень
душно
1010.6 1007.3
21 20.10 С 3 н/о н/о +27.9 +23.1 75 +37 +37 очень
душно
1011.1 1007.8
23 20.10 С 5 н/о н/о +30.2 +22.9 65 +40 +40 очень
душно
1012.7 1009.4
00 21.10 С 6 н/о н/о +30.8 +22.1 60 +40 +40 очень
душно
1013.0 1009.7
02 21.10 СЗ 5 н/о н/о +31.8 +21.0 53 +39 +39 очень
душно
1012.5 1009.2
03 21.10 СЗ 5 н/о н/о +32.3 +20.9 51 +40 +40 очень
душно
1011.6 1008.3
05 21.10 З 4 н/о н/о +32.5 +22.9 57 +43 +43 опасность
перегрева
1010.0 1006.7
06 21.10 СЗ 5 н/о н/о +32.0 +23.5 61 +43 +43 опасность
перегрева
1009.1 1005.8
08 21.10 СЗ 4 н/о н/о +30.7 +23.6 66 +42 +42 опасность
перегрева
1008.8 1005.5
09 21.10 С 5 н/о н/о +29.6 +23.5 70 +40 +40 очень
душно
1009.3 1006.0
11 21.10 СЗ 3 н/о н/о +28.6 +23.5 74 +39 +39 очень
душно
1009.8 1006.5
12 21.10 СЗ 3 н/о н/о +28.4 +23.5 75 +39 +39 очень
душно
1010.2 1006.9
14 21.10 СЗ 2 н/о н/о +27.8 +23.6 78 +38 +38 очень
душно
1010.7 1007.4
15 21.10 СЗ 2 н/о н/о +27.3 +23.1 78 +37 +37 очень
душно
1010.4 1007.1
17 21.10 СЗ 2 н/о н/о +26.9 +23.2 80 +36 +36 очень
душно
1009.1 1005.8
18 21.10 СЗ 2 н/о н/о +27.3 +23.1 78 +37 +37 очень
душно
1008.8 1005.5
20 21.10 СЗ 2 н/о н/о +27.0 +23.3 80 +36 +36 очень
душно
1009.7 1006.4
21 21.10 штиль 0 н/о н/о +27.0 +23.5 81 +37 +37 очень
душно
1010.6 1007.3
23 21.10 З 4 н/о н/о +28.9 +23.3 72 +39 +39 очень
душно
1012.2 1008.9
00 22.10 СЗ 4 н/о н/о +29.5 +22.0 64 +38 +38 очень
душно
1012.5 1009.2
02 22.10 СЗ 4 н/о н/о +31.5 +21.9 57 +40 +40 очень
душно
1011.3 1008.0
03 22.10 З 5 н/о н/о +31.0 +21.8 58 +39 +39 очень
душно
1010.7 1007.4
05 22.10 СЗ 3 н/о н/о +33.3 +20.5 47 +40 +40 очень
душно
1008.5 1005.2
06 22.10 СЗ 4 н/о н/о +32.1 +21.9 55 +41 +41 опасность
перегрева
1008.2 1004.9
08 22.10 С 4 н/о н/о +30.6 +22.5 62 +40 +40 очень
душно
1008.0 1004.7
09 22.10 С 4 н/о н/о +29.3 +23.3 70 +40 +40 очень
душно
1008.8 1005.5
11 22.10 СЗ 3 н/о н/о +28.9 +22.6 69 +38 +38 очень
душно
1009.4 1006.1
12 22.10 СЗ 3 н/о н/о +28.6 +23.3 73 +39 +39 очень
душно
1010.0 1006.7
14 22.10 СЗ 2 н/о н/о +28.3 +23.9 77 +39 +39 очень
душно
1010.4 1007.1
15 22.10 З 1 н/о н/о +27.6 +23.6 79 +38 +38 очень
душно
1010.2 1006.9
17 22.10 З 3 н/о н/о +27.5 +23.9 81 +38 +38 очень
душно
1009.1 1005.8
18 22.10 З 1 н/о н/о +27.2 +23.4 80 +37 +37 очень
душно
1008.2 1004.9
20 22.10 штиль 0 н/о н/о +26.3 +23.8 86 +36 +36 очень
душно
1008.7 1005.4

 

Местоположение метеостанции Port Keats Aero (Северная территория, Австралия): широта -14.25 долгота 129.53 высота над уровнем моря 29 м.

В архиве по умолчанию представлена погода в Port Keats Aero за последнюю неделю. Архивные данные за месяц целиком и за предыдущие месяцы, начиная с января 2011 года, Вы можете получить, выбрав интересующий диапазон дат из раскрывающегося списка и нажав кнопку "Ввод!".


*Определитесь, кто Вы:
робот инопланетянин человек

Внимание! Время в таблицах - всемирное. Для получения местного времени необходимо прибавить поправку, которая в Port Keats Aero равна 9.5 ч.

Смотрите также архив погоды в соседних городах и на ближайших метеорологических станциях:

Погода в Manbulloo Csiro (Северная территория, Австралия) (157 км)
Погода в Cape Don Lighthouse (Северная территория, Австралия) (184 км)
Погода в Kununurra (Западная Австралия, Австралия) (192 км)
Погода в Dum In Mirrie (Северная территория, Австралия) (202 км)
Погода в Wyndham Aero (Западная Австралия, Австралия) (203 км)
Погода в Batchelor Fld (Северная территория, Австралия) (209 км)
Погода в Darwin (Северная территория, Австралия) (251 км)
Погода в Middle Point Aws (Северная территория, Австралия) (265 км)
Погода в Bathurst Island (Северная территория, Австралия) (280 км)
Погода в Victoria River Downs (Северная территория, Австралия) (288 км)

Пояснения к столбцам:

Ветер - указаны скорость ветра в м/с - средняя за 10 мин, порывы в срок и между сроками (в фигурных скобках) и направление, откуда дует ветер: С - северный, СВ - северо-восточный, В - восточный, ЮВ - юго-восточный, Ю - южный, ЮЗ - юго-западный, З - западный, СЗ - северо-западный.
Видимость - горизонтальная дальность видимости в метрах или километрах. При видимости от 1 до 10 км при отсутствии осадков обычно наблюдается дымка, при ухудшении видимости до 1 км и менее - туман. В сухую погоду видимость может ухудшаться дымом, пылью или мглою.
Явления - указаны атмосферные явления, наблюдавшиеся в срок или в последний час перед сроком; фигурными скобками обозначены явления, наблюдавшиеся между сроками (за 1-3 часа до срока); квадратными скобками обозначены град или гололедные отложения с указанием их диаметра в мм.
Облачность - указаны через наклонную черту общая и нижняя облачность в баллах и высота нижней границы облаков в метрах; квадратными скобками обозначены формы облаков: Ci - перистые, Cs - перисто-слоистые, Cc - перисто-кучевые, Ac - высококучевые, As - высокослоистые, Sc - слоисто-кучевые, Ns - слоисто-дождевые, Cu - кучевые, Cb - кучево-дождевые. Подробнее классификацию облаков см. в Атласе облаков (PDF).
T - Температура воздуха - температура, измеренная на высоте 2 м над землей.
Td - Температура точки росы - температура, при понижении до которой содержащийся в воздухе водяной пар достигнет насыщения.
f - Относительная влажность воздуха - влажноcть воздуха, измеренная на высоте 2 м над землей.
Te - Эффективная температура - температура, которую ощущает одетый по сезону человек в тени. Характеристика душности погоды. При расчете учитывается влияние влажности воздуха и скорости ветра на теплоощущения человека.
Tes - Эффективная температура на солнце - температура, которую ощущает человек, с поправкой на солнечный нагрев. Характеристика знойности погоды. Зависит от высоты солнца над горизонтом, облачности и скорости ветра. Ночью, в пасмурную погоду, а также при ветре 12 м/с и более поправка равна нулю.
P - Атмосферное давление - приведенное к уровню моря атмосферное давление.
Po - Атмосферное давление - измеренное на уровне метеостанции атмосферное давление.
Tmin - Минимальная температура - минимум температуры воздуха на высоте 2 м над землей.
Tmax - Максимальная температура - максимум температуры воздуха на высоте 2 м над землей.
R - Количество осадков - Количество выпавших осадков за период времени, мм. При наведении курсора мыши на число - период времени, за который выпало указанное количество осадков.
R24 - Количество осадков - Количество выпавших осадков за 24 часа, мм.
S - Снежный покров - Высота снежного покрова, см. При наведении курсора мыши на число - состояние снежного покрова и степень покрытия местности в баллах.